Temperature
18 18 17 17 17 16 16 16 16 16 16 16 16 15 15 16 16 16 15 15 15 16 16 16 16 16 16 16 16 16 16 15 15 15 15 15 14 14 14 14 14 15 14
20 19 18 17 17 16 16 16 16 16 16 16 16 15 16 16 16 16 15 15 15 16 16 16 16 16 16 16 16 16 15 15 15 14 14 15 15 15 14 14 14 14 14
20 19 18 17 16 16 16 16 16 16 16 16 15 15 16 16 16 16 15 15 16 16 16 16 17 17 16 16 16 16 15 15 14 14 14 15 15 15 15 14 14 14 14
20 19 17 17 16 16 16 16 16 16 16 16 16 16 16 16 16 16 16 16 16 16 17 17 17 17 17 16 16 16 15 14 14 14 14 15 15 15 15 15 14 14 14
19 18 17 16 16 16 16 16 16 16 16 16 16 16 16 16 16 16 17 17 17 17 17 17 17 17 17 17 16 16 15 14 14 14 14 15 15 15 15 15 15 15 14
18 18 17 16 16 16 16 16 16 16 16 16 16 16 16 17 17 17 17 17 17 17 17 17 17 17 17 17 16 16 15 15 14 14 15 15 15 15 15 15 15 15 15
17 17 16 16 16 16 16 16 16 16 16 16 16 16 17 17 17 17 17 17 17 17 17 17 17 17 17 17 16 16 16 15 14 14 15 15 15 15 15 15 15 15 15
17 17 16 16 16 15 16 16 16 17 16 16 16 16 17 17 17 17 17 17 17 17 17 17 17 17 17 17 17 16 16 15 14 14 15 15 15 15 15 15 15 15 15
16 16 16 16 15 15 16 16 16 17 16 16 16 16 16 17 17 17 18 18 18 18 18 17 17 17 17 17 17 16 16 15 15 14 15 15 15 15 15 15 15 15 15
16 16 16 15 15 15 15 16 16 17 16 16 16 16 16 17 17 17 18 18 18 18 17 17 17 17 17 17 16 16 16 15 15 14 15 15 15 15 15 15 15 15 15
16 16 16 15 15 15 16 16 16 16 16 16 16 16 16 17 17 17 17 17 17 17 17 17 17 17 17 17 16 16 16 15 15 14 15 15 15 15 15 15 15 15 15
16 16 16 16 15 15 15 16 16 16 16 16 16 16 16 16 16 17 17 17 17 17 17 17 17 17 17 17 16 16 16 15 15 14 14 15 15 15 15 15 14 14 14
16 16 16 16 15 15 15 15 15 16 16 15 15 16 15 15 15 16 17 17 17 17 17 17 16 16 16 16 16 15 15 15 15 14 14 14 14 14 14 14 14 14 14
16 16 16 16 15 15 15 15 15 15 15 15 15 15 15 15 15 16 16 17 17 17 17 17 16 16 15 15 15 15 15 15 15 14 14 14 14 14 14 14 14 14 13
16 16 16 16 15 15 15 15 15 15 15 15 15 15 15 15 15 15 15 15 16 16 15 16 16 15 15 14 14 14 14 14 14 14 14 14 14 14 14 13 13 13 13
16 16 16 16 15 15 15 15 15 15 15 15 15 15 15 15 15 15 15 15 15 15 15 15 15 14 14 14 14 14 14 14 14 14 13 13 13 13 13 13 13 13 13
16 16 16 15 15 15 15 15 15 14 14 14 15 15 15 15 15 15 15 15 15 15 15 14 14 14 14 14 14 14 14 14 13 13 13 13 13 13 13 13 13 12 12
16 16 15 15 15 15 15 15 15 14 14 14 14 14 14 14 14 14 14 14 14 14 14 14 14 14 14 14 14 13 13 13 13 13 13 13 13 13 13 13 12 12 12
16 16 15 15 15 15 15 15 15 15 14 14 14 14 14 14 14 14 14 14 14 14 14 13 13 13 13 13 13 13 13 13 13 13 13 13 13 13 12 12 12 12 12
16 16 16 15 15 15 15 15 15 15 14 14 14 14 14 14 14 14 14 14 14 14 14 13 13 13 13 13 13 13 13 13 13 13 13 13 13 12 12 12 12 12 11
16 16 16 16 15 15 15 15 15 15 15 15 14 14 14 14 14 14 14 14 14 14 14 13 13 13 13 13 13 13 13 13 13 13 13 13 12 12 12 11 11 11 11
16 16 16 16 16 15 15 15 15 15 15 15 15 14 14 14 14 14 14 14 14 14 14 13 13 13 13 13 12 12 12 12 13 13 13 12 12 12 11 11 11 11 10
16 16 16 16 16 16 15 15 15 15 15 15 15 15 15 15 15 14 14 14 14 14 14 13 13 13 12 12 12 11 11 11 12 12 12 12 12 11 11 10 10 10 10
16 16 16 16 16 16 15 15 15 15 15 15 15 15 15 15 15 15 14 14 14 14 13 13 13 13 12 12 11 11 11 11 10 11 11 11 11 11 10 10 10 9 9
16 16 16 16 16 16 15 15 15 15 15 15 14 14 14 14 14 14 14 14 14 13 13 13 12 12 12 11 11 10 10 10 10 10 10 10 10 10 10 10 9 9 9
16 16 16 16 16 16 16 15 15 15 15 14 14 14 14 14 14 14 14 13 13 13 12 12 12 11 11 10 10 10 9 9 9 9 9 9 9 9 9 9 9 8 8
Wind_Speed
14 19 22 20 19 17 16 16 15 14 14 13 14 15 16 16 16 17 17 18 20 21 21 20 20 19 18 18 18 17 16 16 16 17 18 18 17 17 18 18 15 14 15
18 22 22 21 19 18 17 16 15 15 14 14 14 15 16 16 16 17 18 19 20 20 20 19 19 18 18 17 16 15 13 12 11 10 14 17 17 17 17 17 15 13 15
20 22 22 21 19 18 17 16 15 15 14 14 14 15 17 17 17 17 18 19 20 20 19 18 18 17 16 15 14 13 10 8 7 5 8 15 16 17 16 16 15 15 15
20 22 20 21 20 19 17 16 15 14 14 14 15 16 17 17 17 17 18 18 19 18 17 17 16 16 15 14 13 11 8 8 10 10 14 16 15 15 16 16 16 16 16
18 20 22 21 20 19 17 16 15 14 14 15 15 16 17 17 17 17 17 17 17 17 16 15 15 15 14 13 11 9 8 9 10 13 17 17 14 14 14 15 15 14 15
16 21 22 21 20 19 17 15 15 14 14 15 15 16 17 17 16 16 16 15 15 15 15 14 14 13 13 11 10 8 8 10 9 15 17 16 13 13 13 13 13 13 13
17 21 21 21 20 18 16 15 14 14 14 15 16 16 17 16 16 15 14 14 13 13 13 13 12 12 11 10 8 7 9 12 8 13 16 14 12 12 12 12 12 12 12
16 18 20 21 20 18 16 14 13 14 14 15 16 16 17 16 15 14 13 12 11 11 11 11 11 10 9 8 7 7 8 10 8 11 14 12 10 10 10 10 11 11 11
15 16 17 17 18 18 16 14 13 13 13 14 15 16 16 15 14 13 12 11 10 9 9 9 8 8 7 6 5 5 7 9 9 5 9 10 8 8 8 8 8 9 10
12 12 13 16 16 16 15 14 14 13 13 14 15 17 17 15 14 13 12 10 9 8 7 6 6 5 4 3 1 2 6 10 8 3 9 9 6 5 5 5 6 7 7
10 11 11 12 15 16 15 14 14 13 13 14 14 16 16 14 13 12 12 10 8 7 5 5 4 3 3 3 3 3 6 10 5 3 8 8 5 2 1 2 3 4 5
9 9 9 9 11 14 14 14 13 12 12 12 14 14 12 11 12 12 13 10 8 7 6 5 5 5 7 8 8 7 8 10 6 1 7 8 5 2 2 2 1 0 1
8 8 8 8 10 11 10 11 11 12 13 13 16 15 11 9 11 12 11 10 9 9 8 9 9 10 11 6 5 9 9 3 6 4 5 8 6 5 5 5 4 4 2
9 8 8 7 7 9 10 8 8 8 8 7 11 13 9 6 6 8 9 12 12 11 10 10 10 11 9 7 8 8 6 6 8 6 6 9 8 7 8 9 8 7 6
9 9 9 9 8 6 6 6 6 6 7 7 7 7 7 6 4 5 5 6 7 7 7 6 7 7 5 6 6 6 6 8 9 9 8 12 11 11 11 11 11 10 10
8 9 9 9 8 7 4 4 4 6 7 8 9 7 6 6 5 3 3 4 4 4 4 6 6 5 4 4 4 5 7 9 9 9 8 12 14 14 14 14 14 13 13
8 8 8 8 8 8 6 5 5 5 8 7 9 10 9 6 5 4 2 2 4 6 7 6 6 3 2 2 3 6 8 8 8 9 10 10 12 15 17 16 15 15 15
8 8 8 8 8 8 6 5 5 6 6 6 8 9 10 9 8 6 3 3 6 6 5 2 2 3 3 4 4 4 4 5 7 9 10 10 10 11 14 16 16 15 15
8 8 8 8 8 7 7 5 5 5 5 6 7 7 8 8 8 7 4 5 6 4 3 2 3 3 4 4 4 4 4 4 5 8 8 11 11 10 10 10 13 15 15
8 9 9 8 7 7 6 4 4 4 3 5 5 6 6 6 6 6 4 4 4 2 2 3 4 4 4 4 4 5 5 6 5 6 7 9 9 9 8 6 6 8 11
6 7 9 9 8 6 5 5 5 4 3 3 3 5 5 5 5 4 2 3 3 3 3 4 3 4 4 3 3 5 6 8 9 8 5 4 3 3 4 4 3 3 3
8 7 7 8 8 7 6 5 4 4 3 3 3 4 4 3 2 2 2 1 1 2 4 4 3 3 3 2 3 3 4 4 5 6 4 3 1 0 2 3 2 2 1
8 8 6 7 7 7 6 5 3 3 2 2 3 3 2 2 1 1 1 1 2 2 3 4 4 4 4 4 4 4 3 4 4 3 1 1 1 1 1 3 4 3 3
8 6 6 6 6 5 6 6 6 5 4 4 3 3 3 2 2 3 3 2 2 2 2 3 3 3 3 4 3 4 5 4 3 4 3 1 1 0 1 2 3 4 4
8 7 6 6 6 5 5 6 6 4 4 3 3 4 3 3 4 4 3 3 2 2 3 3 3 3 3 4 4 3 4 4 5 5 4 3 2 1 1 2 4 6 8
7 7 5 6 6 6 5 5 5 6 5 5 4 3 3 3 3 4 3 3 3 2 3 3 3 4 4 4 4 3 3 3 3 4 5 4 3 1 2 3 4 6 8
Wind_Direction
130 140 143 140 136 131 126 120 114 109 106 102 97 92 87 82 80 81 84 88 89 89 87 86 84 82 80 79 77 77 77 79 81 79 74 67 61 57 54 53 59 55 55
133 140 143 140 137 132 127 121 116 112 109 105 100 96 91 87 84 85 87 89 89 88 87 86 85 83 82 80 78 78 79 80 81 84 83 71 60 58 57 56 56 55 53
131 139 143 140 137 133 127 123 119 116 113 108 104 100 95 91 89 88 89 89 89 87 86 85 85 83 82 81 79 77 73 62 43 42 85 80 63 58 58 57 56 55 52
131 141 143 140 137 133 129 125 122 120 116 112 107 104 99 96 93 92 92 91 90 88 87 86 84 84 82 81 79 75 60 34 18 48 75 71 62 56 54 53 52 51 48
132 140 138 140 137 134 131 128 125 124 119 115 111 107 104 101 98 97 96 95 93 90 88 87 85 84 82 81 78 68 42 17 20 67 78 74 62 56 53 51 49 48 46
131 129 137 139 137 134 133 130 128 127 123 120 116 113 109 106 104 102 101 100 97 94 91 88 87 85 83 80 73 55 26 7 48 75 76 72 62 57 55 52 49 48 46
126 129 139 139 138 136 134 131 129 129 126 125 122 118 114 112 110 108 107 105 103 98 93 89 87 86 83 78 67 40 15 2 68 85 84 75 64 59 57 53 50 48 45
124 131 139 140 138 135 133 131 128 128 128 128 126 122 119 117 115 114 111 109 107 102 97 91 87 85 83 77 62 30 7 3 22 84 95 85 70 64 59 55 52 48 47
125 131 139 142 137 135 132 128 125 126 128 128 128 125 123 122 121 120 117 114 110 105 100 96 91 87 85 79 59 18 350 341 338 76 99 97 82 69 63 56 52 49 48
128 136 143 146 142 138 131 126 121 121 126 129 132 131 131 132 132 131 124 120 117 113 109 105 102 100 102 103 81 340 321 314 306 103 107 110 98 79 67 60 54 51 49
137 143 148 150 150 147 140 135 127 125 128 132 135 142 146 151 151 147 133 131 130 129 129 129 133 153 188 209 216 254 284 287 295 94 115 129 125 108 84 71 58 54 52
147 149 149 149 150 145 140 151 151 148 152 160 154 164 183 177 152 142 141 147 153 159 165 176 191 219 234 229 219 232 257 268 288 209 154 153 157 190 234 234 227 73 58
155 150 146 144 143 138 146 162 160 160 173 190 169 181 195 143 131 144 158 168 182 191 200 202 212 229 235 219 190 230 246 301 316 300 170 170 181 214 241 246 240 234 233
160 155 145 140 142 147 154 157 156 157 175 180 165 178 177 159 165 173 175 181 191 198 207 195 217 227 221 220 221 240 249 230 245 244 192 192 202 220 240 248 247 240 237
164 162 155 152 152 153 150 155 165 163 168 163 159 184 175 157 178 184 192 181 201 202 188 206 235 243 229 239 238 242 258 258 250 238 219 210 216 224 233 244 248 246 241
168 167 162 161 160 159 156 161 174 170 167 163 161 190 191 179 182 167 199 186 214 217 221 220 236 240 237 246 258 266 264 268 267 259 239 221 222 227 232 239 245 249 248
166 165 167 169 167 167 171 179 178 175 169 166 165 188 191 194 182 174 222 197 213 221 229 234 262 272 276 274 268 264 261 262 268 271 265 242 226 227 233 238 243 247 250
162 163 168 175 175 176 175 178 176 183 176 167 171 188 189 196 188 189 206 221 228 229 223 218 244 269 261 255 257 264 264 265 264 268 272 265 243 229 230 236 242 246 250
166 164 166 168 177 179 175 175 175 178 173 173 176 185 191 197 193 193 206 224 233 232 224 227 230 240 258 263 266 272 275 271 263 265 262 263 258 242 228 232 240 245 249
169 165 165 167 173 172 171 169 170 179 176 178 176 181 183 193 196 199 206 227 240 227 234 236 240 243 247 259 274 277 270 262 256 251 250 255 258 243 224 226 235 245 248
167 166 169 171 175 169 170 172 174 184 181 177 169 176 181 186 192 198 206 227 236 237 242 248 251 255 254 253 275 285 270 254 248 244 231 232 246 228 192 198 209 222 260
170 173 170 169 171 170 173 172 167 161 166 167 152 157 159 158 172 186 208 230 244 254 265 267 266 259 254 226 225 275 295 297 269 243 215 197 203 160 142 145 128 116 85
171 172 170 163 161 162 156 141 132 125 124 153 164 159 133 142 177 164 237 270 268 245 252 261 264 256 254 247 217 223 257 271 322 323 256 175 183 170 148 121 105 84 68
164 152 153 150 153 155 154 158 164 167 174 182 167 147 134 133 91 56 25 353 330 310 291 284 284 274 260 260 256 233 230 238 265 296 310 308 323 16 57 87 91 82 72
141 142 152 152 154 157 163 167 171 166 159 139 129 137 146 125 102 69 24 1 345 330 319 312 304 292 271 261 259 259 257 257 240 243 269 283 303 350 68 65 69 66 62
136 141 154 158 157 154 154 154 159 153 143 139 143 147 142 129 116 93 48 15 3 358 339 327 314 300 289 282 276 265 253 248 244 239 248 250 249 245 77 62 60 61 64
Height
1525 1528 1531 1534 1537 1539 1541 1543 1544 1544 1545 1546 1547 1547 1548 1548 1549 1549 1551 1552 1553 1554 1555 1556 1557 1557 1558 1558 1559 1559 1559 1560 1560 1560 1561 1560 1560 1560 1559 1559 1559 1558 1557
1523 1527 1531 1535 1538 1540 1542 1543 1545 1546 1547 1548 1549 1549 1550 1550 1551 1551 1553 1554 1555 1556 1557 1558 1559 1559 1560 1561 1561 1562 1562 1563 1563 1563 1563 1563 1563 1562 1562 1562 1561 1560 1560
1523 1528 1532 1535 1538 1541 1543 1544 1546 1547 1548 1549 1550 1551 1552 1552 1553 1553 1555 1556 1557 1558 1559 1560 1561 1562 1563 1563 1564 1564 1565 1565 1566 1566 1565 1565 1565 1565 1564 1564 1563 1563 1562
1524 1528 1532 1535 1539 1541 1543 1545 1546 1548 1549 1551 1552 1553 1554 1555 1555 1556 1557 1558 1559 1560 1562 1563 1563 1564 1565 1566 1566 1567 1568 1568 1568 1568 1568 1567 1567 1566 1566 1565 1565 1564 1564
1526 1530 1533 1536 1539 1542 1544 1546 1547 1549 1551 1552 1554 1555 1556 1557 1558 1558 1559 1561 1562 1563 1564 1565 1566 1567 1567 1568 1569 1569 1570 1570 1570 1570 1569 1569 1569 1568 1567 1567 1566 1566 1565
1527 1530 1534 1537 1540 1543 1545 1547 1548 1550 1552 1554 1555 1557 1558 1559 1560 1561 1562 1563 1564 1565 1566 1567 1568 1569 1570 1570 1571 1571 1571 1572 1572 1572 1571 1571 1570 1569 1569 1568 1567 1567 1566
1528 1531 1535 1538 1541 1543 1546 1548 1549 1551 1553 1555 1557 1558 1560 1561 1562 1563 1564 1566 1567 1568 1569 1569 1570 1571 1572 1572 1573 1573 1573 1573 1573 1573 1573 1572 1571 1571 1570 1569 1568 1567 1566
1529 1532 1536 1539 1542 1544 1546 1548 1550 1552 1554 1556 1558 1559 1561 1562 1564 1565 1566 1567 1569 1570 1571 1571 1572 1573 1573 1574 1574 1574 1574 1574 1574 1574 1573 1573 1573 1572 1571 1570 1569 1568 1567
1530 1533 1536 1540 1542 1545 1547 1549 1551 1553 1555 1557 1559 1560 1562 1564 1565 1566 1568 1569 1570 1571 1572 1573 1573 1574 1574 1575 1575 1575 1575 1575 1575 1575 1574 1574 1573 1573 1572 1571 1570 1569 1568
1532 1534 1537 1540 1543 1545 1547 1549 1551 1554 1556 1558 1560 1561 1563 1565 1566 1567 1569 1570 1571 1572 1573 1574 1574 1575 1575 1576 1576 1576 1576 1576 1576 1576 1575 1574 1574 1573 1572 1571 1570 1569 1568
1533 1536 1538 1541 1543 1545 1547 1550 1552 1554 1556 1558 1560 1562 1564 1565 1566 1568 1569 1570 1572 1573 1573 1574 1575 1575 1575 1576 1576 1576 1576 1576 1576 1576 1575 1575 1574 1573 1572 1571 1570 1569 1568
1533 1537 1539 1542 1544 1546 1548 1550 1552 1554 1557 1559 1561 1562 1564 1565 1566 1567 1569 1570 1572 1572 1573 1574 1574 1575 1575 1575 1575 1576 1576 1575 1576 1575 1574 1574 1573 1572 1571 1570 1570 1569 1568
1533 1537 1539 1542 1544 1546 1548 1550 1552 1554 1557 1558 1560 1562 1564 1566 1567 1568 1569 1570 1571 1572 1572 1573 1574 1574 1574 1574 1574 1575 1575 1575 1575 1574 1573 1573 1572 1571 1570 1569 1568 1568 1567
1533 1536 1539 1541 1544 1546 1548 1550 1553 1554 1556 1559 1561 1562 1564 1565 1566 1567 1567 1568 1569 1570 1571 1571 1572 1572 1573 1574 1574 1574 1573 1573 1573 1572 1572 1571 1571 1570 1569 1568 1567 1566 1565
1532 1535 1538 1540 1543 1545 1548 1550 1552 1554 1556 1558 1560 1561 1563 1564 1565 1566 1567 1568 1569 1569 1570 1571 1571 1572 1572 1572 1572 1572 1572 1571 1571 1571 1570 1569 1568 1568 1567 1566 1565 1564 1563
1529 1533 1536 1538 1541 1544 1547 1549 1551 1553 1555 1556 1558 1560 1561 1562 1564 1565 1566 1567 1568 1568 1569 1569 1570 1570 1570 1570 1570 1570 1570 1569 1569 1569 1568 1566 1566 1565 1564 1563 1562 1562 1561
1527 1530 1533 1536 1539 1542 1545 1547 1549 1551 1553 1555 1556 1558 1559 1561 1562 1563 1564 1565 1566 1567 1567 1568 1568 1568 1568 1568 1568 1567 1567 1567 1566 1566 1565 1564 1563 1562 1561 1560 1560 1559 1558
1525 1528 1531 1534 1537 1539 1542 1545 1547 1549 1552 1553 1554 1556 1557 1559 1560 1561 1562 1563 1564 1565 1565 1565 1566 1566 1565 1565 1565 1565 1564 1563 1563 1562 1561 1561 1559 1558 1557 1557 1556 1556 1555
1523 1526 1529 1531 1534 1537 1540 1542 1545 1547 1550 1551 1553 1554 1556 1557 1558 1559 1560 1561 1562 1562 1563 1563 1563 1563 1563 1562 1562 1561 1560 1559 1559 1558 1557 1556 1555 1554 1553 1553 1552 1551 1551
1520 1523 1526 1528 1531 1534 1537 1540 1542 1545 1547 1549 1550 1552 1553 1555 1556 1557 1558 1559 1559 1560 1560 1560 1560 1560 1559 1559 1558 1556 1555 1555 1554 1553 1552 1551 1551 1550 1549 1549 1548 1547 1547
1518 1520 1523 1525 1528 1531 1534 1536 1539 1541 1544 1546 1548 1549 1551 1552 1553 1554 1555 1556 1556 1556 1556 1556 1556 1556 1555 1555 1553 1551 1550 1549 1548 1547 1547 1547 1547 1546 1546 1545 1544 1543 1543
1515 1517 1520 1523 1525 1528 1531 1534 1536 1539 1541 1543 1545 1546 1548 1549 1550 1551 1551 1552 1552 1552 1552 1552 1552 1551 1551 1551 1550 1548 1545 1544 1543 1543 1543 1543 1543 1543 1542 1541 1540 1540 1539
1511 1514 1517 1519 1522 1525 1528 1530 1533 1535 1537 1539 1541 1543 1544 1545 1546 1547 1547 1548 1548 1548 1547 1547 1547 1547 1546 1546 1546 1545 1543 1541 1540 1540 1540 1540 1540 1539 1539 1538 1537 1536 1536
1507 1510 1513 1516 1519 1522 1525 1527 1529 1531 1533 1535 1537 1539 1540 1541 1542 1543 1543 1543 1543 1543 1542 1542 1542 1541 1541 1540 1540 1540 1540 1539 1538 1535 1536 1536 1536 1536 1535 1534 1533 1533 1532
1503 1506 1509 1512 1515 1518 1521 1523 1525 1527 1529 1532 1533 1535 1536 1537 1538 1538 1539 1538 1538 1537 1537 1536 1536 1535 1535 1534 1534 1534 1534 1534 1533 1533 1531 1531 1532 1532 1531 1530 1530 1529 1528
1499 1502 1505 1508 1511 1514 1516 1519 1521 1523 1525 1527 1529 1530 1531 1532 1532 1533 1533 1533 1532 1532 1531 1531 1530 1530 1529 1529 1528 1528 1529 1528 1528 1528 1527 1526 1527 1527 1527 1526 1526 1525 1524